Race Results for
MT CHARLESTON HILL CLIMB
LAS VEGAS, NV
(Event Information)
View By:
Road Race on 08/30/2008

Note: Ranking points are NOT upgrade points. An explanation of ranking points can be found here.


Men - Single Speed - Fixed

 Place Points NameCity, StateTime USAC #BibTeam
1Lance Bateman   1:40:01  981 NA
2Alex Irizari   1:50:47  982 NA
3Veselin Kolev   1:52:04  983 
4558.75James Ransweiler   Los Angeles, CA1:55:52 253562  986 GS Arroyo
5Bryan Novelo   2:01:47  985 Nu Vision
6571.25Danny Kam   Las Vegas, NV2:08:17 165840  988 Nu Vision
7Vincent Apple   2:16:27  980 NA
8joel Reid   2:38:59  987 Nu Vision
9Donald Jean   3:32:22  989 Nu Vision Cyclery
DNFJason Landberg   Las Vegas, NV0:00:00 236620  984 NU Vision Cyclery

Men - Pro/Cat 1/2

 Place Points NameCity, StateTime USAC #BibTeam
1450.18David Francis   Las Vegas, NV1:19:51 12207  621 Red Burro Racing
2460.94Christian Walker   Goleta, CA1:22:55 50894  629 Time Factory Team
3471.70Jeremy Thatcher   Las Vegas, NV1:25:12 245020  626 Mc Ghies
4482.46Kerry Farrell   Federal Way1:25:17 50091  628 Excel Sports Boulder
5493.22Michael Onkels   Glendale, CA1:27:20 52576  625 Amgen/Giant Masters
6503.98Jorge Alvarado   1:29:58 201024  644 Kahala LaGrange
7514.74Peter Brown   Tucson, AZ1:30:33 46885  620 GST Racing
8525.50Tyler Locke   Canyon Country, CA1:30:58 218099  623 Santa Clarita Velo
9536.26Mike Hileman   Henderson, NV1:32:02 162082  682 Team Sho-Air
10547.02Ryan Gibson (1 - Cat2)   Las Vegas, NV1:38:40 142890  646 HDCC-Allegiant Airlines/Pain M
11557.78Mark Henry   Las Vegas, NV1:44:12 41082  627 Team Pro Cyclery
12568.54Robert McCall   Las Vegas , NV1:44:13 53621  624 Matt Smith PT
13579.30James Robbins   Carlsbad, CA1:45:55 30054  643 PaulTracy.com
14590.06Butch Heiss   Henderson, NV2:19:25 41547  622 HDCC-Allegiant Airlines/Pain M
DNSEric Bennett   Littleton, CO0:00:00 242825  619 Successful Living p/b Parkpre

Men - Cat 3

 Place Points NameCity, StateTime USAC #BibTeam
1540.00Mitchell Hall   San Diego, CA1:27:07 169274  633 San Diego Cyclovets
2545.00Johnathan Edwards   Las Vegas, NV1:27:18 10514  632 Paul Tracy.com
3550.00Alfred Thresher   Las Vegas, NV1:27:26 213890  639 Red Burro Racing of Las Vegas
4555.00Bryan Bitter   Las Vegas, NV1:28:59 254853  630 HDCC-Allegiant Arlines/Matt Sm
5560.00Noe Alcala   Las Vegas, NV1:33:42 231101  647 HDCC-Allegiant Airlines/Pain M
6565.00Herb Johnson   La Jolla, CA1:34:10 55245  642 Acqua al 2/SDBC
7570.00Derek Lowe   Newington, CT1:38:50 115352  635 Team Pro Cyclery
8575.00David Nocera   Apple Valley, CA1:39:35 57701  638 NA
9580.00Spencer Canon   Santa Monica, CA1:40:42 59115  631 Kahala LaGrange
10585.00Charles Luib   Las Vegas, NV1:50:00 252688  636 HDCC-Allegiant Airlines/Matt S
11590.00Hector Gomez   La Verkin, UT1:58:35 210015  645 CA Pools Racing
DNSThomas Michaud   Las Vegas, NV0:00:00 199356  637 Allegiant Airlines/Pain MD's.c
DNSStephen Washburn   Port Hueneme, CA0:00:00 101657  640 
DNSCameron Webb   Santa Monica, CA0:00:00 37455  641 Cadence/Park Pre

Men - Cat 4

 Place Points NameCity, StateTime USAC #BibTeam
1529.56Matt Sheremeta   Cardiff By The Sea, CA1:29:11 220904  667 Celo Pacific
2532.44Rafe Allen   Henderson, NV1:30:06 271824  650 Team Penta/Vegas Velo
3535.32Brian Fife   Las Vegas, NV1:33:13 245571  654 Red Burro Racing
4538.20Alan Zarembo   Los Angeles, CA1:33:37 269254  675 Velo Club La Grange Westwood
5541.08Zachary Hoover   Los Angeles, CA1:39:18 208061  660 NA
6543.96Maksim Gusev   San Diego, CA1:39:37 263738  658 NA
7546.84Matt Marshall   San Marcos, CA1:40:14 230074  663 Acqua al 2 / SDBC
8549.72Ray Turon   Ventura, CA1:40:32 242240  674 Camarillo Bike Co.
9552.60Nicholas Tarrant   La Verne, CA1:43:52 271064  671 SC VELO
10555.48Nicholas Tarrant   La Verne, CA1:45:53 271064  672 SC VELO
11558.36Edward Gilligan   Tucson, AZ1:46:14 41964  656 GST Racing
12561.24Brian Coyne   Henderson, NV1:46:43 260534  652 Luv2Bike
13564.12Jeff Strong   Las Vegas, NV1:47:19 255365  670 Nu Vision
14567.00Alex Hall   Santa Monica, CA1:47:51 188293  659 South Bay Wheelmen
15569.88John Schmidt   Huntington Beach, CA1:49:12 222526  666 NA
16572.76Pat Smith   Las Vegas, NV1:51:43 238335  669 Nu Vision Cyclery
17575.64Glenn Masuda   Long Beach, CA1:52:05 172530  664 Celo Pacific
18578.52marty omalia   Ventura, CA1:54:14 267086  665 NA
19581.40Eddie Huang   San Diego, CA1:58:38 269974  661 Descartes
20584.28Nguyen Tran   San Marcos, CA1:58:53 264474  673 Descartes/Ptuning
21587.16Richard Galvan   Glendora2:10:08 60653  655 Unattached
22590.04Brett Ball   Las Vegas, NV2:33:28 272539  651 Luv2Bike
DNSPatrick Dow   Las Vegas, NV0:00:00 215927  653 McGhie's (Las Vegas High Rolle
DNSNick Gillock   Los Angeles, CA0:00:00 269508  657 Kahala La Grange
DNFOron Kotlizky   Santa Monica, CA0:00:00 19711  662 Unattached

Men - Cat 5

 Place Points NameCity, StateTime USAC #BibTeam
1540.00Preciliano Diaz Molina   Las Vegas, NV1:34:44 255274  740 team C.E.S.
2Jason Alderman   1:35:43  725 NA
3541.42Judd Glasser   San Marcos, CA1:37:37 279744  746 Swamis Cycling
4Ramiro Magana   1:39:03  764 
5Bryan Burgess   1:43:00  734 
6Boyd Erickson   1:44:36  743 Red Burro Racing
7Greg Wondra   1:45:33  792 NA
8Bob OKeefe   1:46:08  776 
9Jose Rivera   1:48:30  779 
10Kevin Incorvati   1:50:21  755 NA
11james caro   1:50:27  736 N/A
12547.81Yashindir Gokul   Las Vegas, NV1:50:37 255265  747 LUV2BIKE RACING
13548.52Michael Banley   West Hollywood, CA1:51:11 271934  727 Kahala La Grange
14Byron McGee   1:51:12  767 McGee Brothers Racing
15Matthew White   1:51:15  789 Nu Vision
16seth graham   1:51:45  748 rehab united/team excel
17551.36Zane Marshall   Henderson, NV1:52:59 156967  766 HDCC-Allegiant Airlines/Matt S
18ANTHONY MORELL JR   1:53:14  772 NA
19NANDO ATHEHO   1:53:15  676 
20553.49Marshall Evans   Las Vegas, NV1:55:42 269577  745 Luv2Bike
21Craig Chandler   1:57:55  737 
22Jason Miller   1:58:53  769 
23Eric Herdman   1:58:55  753 NA
24Dustin Bradshaw   2:00:22  733 
25jp cleary   2:00:58  738 NA
26557.75Richard Koker   Las Vegas, NV2:02:11 186619  759 NA
27558.46Chris Lanning   Altadena, CA2:03:15 270228  761 PAA
28559.17Tony Harkin   Las Vegas, NV2:03:18 246654  751 red burro racing
29Anthony Amaroso   2:03:21  726 
30ABE JACKSON   2:03:46  795 
31Mauro Cana   2:04:47  735 
32Dominique Borghetto   2:05:56  731 
33Chris Biaggi   2:06:44  729 
34Edward Rush   2:07:16  780 NA
35ADAM PACE   2:07:47  684 
36Jeffrey Hannan   2:07:52  750 
37Sergei Vasilyev   2:08:09  787 NA
38Steven Sjogren   2:08:10  785 unattached
39Lance Wilson   2:10:21  791 
40Mark Schmitt   2:10:39  782 NA
41ARTUR KALISZ   2:11:45  794 
42569.11Jeff Shein   Anaheim Hills, CA2:12:03 251359  783 Sho-Air/Sonance
43569.82Shannon Larsen   Las Vegas, NV2:12:53 233012  762 NA
44Elliot Grothe   2:13:03  749 Elliot Grothe
45571.24Rolf Maile   Las Vegas, NV2:13:19 255805  765 Nu Vision
46William (Rocky) Heidt   2:14:19  752 Southwest Bikes
47Ferdinand Boleski   2:14:36  732 
48Ken Sablay   2:14:49  781 
49Mike Waldman   2:15:18  788 
50Gene Dobrzyn   2:17:23  741 
51Hiro Sasaki   2:17:56  797 
52Mark Beevor   2:19:43  728 
53Mauro Figueroa   2:22:17  648 
54Curtis Ingle   2:22:42  756 
55Joshua Aguayo   2:22:58  990 Southwest Bikes
56579.05Matthew Hunt   Las Vegas, NV2:24:11 120917  634 NA
57Brian Kabala   2:24:51  998 
58Paul Kuhn   2:24:55  760 NA
59HENRYK JANASIK   2:25:36  793 
60581.89Paul Ress   Las Vegas, NV2:26:07 417785  798 
61Scott Black   2:27:51  730 NA
62Boyd Nelson   2:27:52  773 NA
63584.02Steve Nguyen   San Diego, CA2:28:34 272050  775 Descartes/Ptuning
64Jeff Ender   2:29:23  742 
65585.44Chad Lunsford   Murrieta, CA2:33:00 276514  763 CA Pools Racing
66Randy McGhie   2:42:23  796 
67BRIAN CIRIMELE   2:43:40  771 
68John Ertle   2:46:12  744 
69PETE CASTELLANOS   3:10:32  757 
70Neil Kesterson   3:10:56  758 BC Adventure Bicycles
71William Brabant   3:27:56  649 
DNSDavid Nguyen   San Diego, CA0:00:00 270947  774 Descartes/Ptuning
DNSJohn Sinnott   San Marcos, CA0:00:00 263335  784 Descartes/PTuning
DNFKOSTEK ZBIGNIEW   0:00:00  677 
DNFCharles Concoby   0:00:00  739 NA
DNFJames Houssels   0:00:00  754 
DNFRyan Mercado   0:00:00  768 Spring Mountain Cycling Club
DNFPaul Moffat   0:00:00  770 
DNFJoel Pelinger   0:00:00  777 
DNFJavier Rios   Las Vegas, NV0:00:00 250779  778 Vegas Velo Racing Team
DNFHenry Valentino III   0:00:00  786 
DNFshane wible   0:00:00  790 NA
DNFJohn Torres   0:00:00  799 
DNFBrandon Dail   0:00:00  991 Team BC Adventure Bikes

Men - Master - MR - 35-99

 Place Points NameCity, StateTime USAC #BibTeam
1522.64Greg Leibert   Hermosa Beach, CA1:25:03 129138  915 Big Orange Racing/Cynergy Cycl
2524.89Stephen Ferretti   Crestline, CA1:31:21 193308  907 Amgen/Giant Masters
3527.14Steven Fellows   Las Vegas, NV1:33:06 213608  906 Red Burro Racing
4529.39Stephen Kircher   Las Vegas, NV1:34:33 120963  683 PaulTracy.com
5531.64Michael Anderson   Las Vegas, NV1:34:36 110224  901 PaulTracy.com
6533.89John Rondash   Los Angeles, CA1:36:46 52283  920 Sho-Air Sonance
7JEFF DIETRICH   1:40:02  929 
8538.39Antonio Gonzalez (1 - Cat4)   Las Vegas, NV1:42:49 194137  909 team C.E.S.
9Matthew McGee   1:44:04  927 
10542.89Kenneth Bingham   Las Vegas, NV1:44:55 154752  924 PaulTracy.com
11545.14Jason Lilje   Broken Arrow, OK1:46:45 136040  916 PaulTracy.com
12STEPHEN WHITE   1:55:24  928 
13Jeff Meads   1:57:02  917 N/A
14551.89Greg Vega   Topanga , CA1:57:58 36554  923 NA
15Robert Hosea   1:59:15  913 NA
16Steve Basner   2:00:00  902 
17558.64Robert Alder (1 - Cat5)   Prescott, AZ2:02:35 151825  900 LUV2Bike
18Julian Schafer   2:05:27  925 
19Roman Ruiz   2:06:52  921 NA
20Ninh Tran   2:07:15  922 NA
21Anthony Moreno   2:07:41  918 
22Tim Foley   2:14:32  908 Southwest Bikes
23572.14Mark Erhart   St. George, UT2:17:10 46463  905 Team Pro Cyclery
24Alonso Tejeda   2:22:40  926 
25Darren Hardy   2:23:57  911 NA
26Robert Harrison   2:32:23  912 NA
27Tim Deibert   2:33:28  904 
28Wayne Kyker   2:35:48  914 NA
29travis damian   2:41:58  903 NA
30mark pankoff   2:42:13  919 NA
31Alison Guerin   2:43:33  910 NA

Men - Master - MR - 45-99

 Place Points NameCity, StateTime USAC #BibTeam
1487.42Richard Meeker   Corona Del Mar, CA1:31:04 23914  946 AMGEN/Giant Masters
2Dale Lembke   1:33:30  942 NA
3495.62Scott Shaw   Covina, CA1:37:01 32353  954 SoCal Cycling
4499.72Steve Catena   Torrance, CA1:37:16 219934  937 Peninsula Cycle Club
5503.82Joseph Wenninger   Laguna Niguel, CA1:38:00 151221  958 Cynergy Cycles
6507.92Stan Freeman   Las Vegas, NV1:39:10 176749  940 Paultracey.com
7Gary Lial   1:40:37  943 
8Louis Baker   1:41:39  932 NA
9520.22Marek Sierski   Las Vegas, NV1:42:39 84005  955 PaulTracy.com
10524.32Breck Bennion   Las Vegas, NV1:42:51 249906  935 Red Burro Racing
11528.42Anthony Luna   Las Vegas, NV1:45:48 45619  944 Carina Homes
12William Becker   1:58:05  934 NA
13Andrew Zak   2:03:51  960 
14Michael Curby   2:04:06  938 NA
15CHARLES MCPHERSON   2:05:10  945 NA
16548.92Mark Thome   Henderson, NV2:05:17 138035  957 Team Pro Cyclery
17553.02Randy Peck (1 - Cat5)   Las Vegas, NV2:06:09 224277  951 Team Pro Cyclery
18Mike Miller   2:06:34  949 
19John Davis   2:08:01  939 
20Bill Balelo   2:15:46  933 NA
21Paul Pitao   2:22:49  953 
22Mark Labouff   2:27:35  961 
23Dana Nitz   2:29:30  963 
24Eddie Aviles   2:35:40  931 
25585.82Joseph Miller   Phoenix, AZ2:43:34 255705  948 Team WM
26Leonard Bergman   2:51:47  936 NA
DNSLarry LaHodny   Henderson, NV0:00:00 270966  941 NA
DNSBill Pinckard   0:00:00  952 Oriental Express
DNSRandy Wilcox (Cat5)   Henderson, NV0:00:00 271241  959 Red Burro Racing
DNFLouie Amelburu   Las Vegas, NV0:00:00 65992  930 PaulTracy.com
DNFVictor Miera   Las Vegas, NV0:00:00 280155  947 luv2bike
DNFRonan O'Gorman   0:00:00  950 
DNFchristina sommers   0:00:00  956 NA
DNFJohn Langton   0:00:00  962 

Men - Master - MR - 55-99

 Place Points NameCity, StateTime USAC #BibTeam
1500.91Steve Bernede   Laguna Beach, CA1:46:45 126351  965 Cycles Veloce/Simple Green
2509.01Richard Pollock   Poway, CA1:54:11 219983  973 Healthnet Maxiss-Citrus Valley
3517.11Benjamin Maciel   Heber, CA1:55:11 275832  971 Health Net Citrus Valley Velo
4525.21Peter Schindler   Los Angeles, CA1:58:17 98729  975 NA
5533.31Howard Miller   Long Beach, CA2:05:00 49424  972 paramount racing
6Bruce Leslie   2:07:29  970 
7David Revzin   2:13:17  974 NA
8Jerry Bitter   2:13:18  967 NA
9Keith Hatton   2:18:43  969 
10Larry Ashton   2:23:03  976 
11Buddy Caples   2:27:05  968 
12Clive Bevan   2:34:23  966 NA

Men - Junior - JR - 13-14

 Place Points NameCity, StateTime USAC #BibTeam
1538.69Kristopher Maile   Las Vegas, NV1:44:53 262046  992 Nu Vision
2558.48Kyle Torres   Laguna Niguel, CA1:52:27 264918  996 Sho-Air/Sonance
3578.27Michael Shein   Anaheim Hills, CA1:55:22 251358  995 Sho-Air/Sonance

Men - Junior - JR - 15-16

 Place Points NameCity, StateTime USAC #BibTeam
1540.00Timothy Moody   Las Vegas, NV1:34:19 280372  999 Southwest Bikes
2565.00Andrew Sjogren   Riverside, CA1:44:09 271744  668 unattached
3590.00Ryan Maile   Las Vegas, NV1:53:53 260406  993 Nu Vision
DNSMichael Toth   Santa Barbara, CA0:00:00 265544  997 Echelon Santa Barbara

Men - Junior - JR - 17-18

 Place Points NameCity, StateTime USAC #BibTeam
1Marcus Sacchetti   Las Vegas, NV1:58:03 272485  994 Luv2Bike

Women - Cat 1/2/3

 Place Points NameCity, StateTime USAC #BibTeam
1538.18Alisha Welsh   Tucson, AZ1:36:09 276369  691 Kuhl/Scott
2543.94Stephanie Bissonnette   Henderson, NV1:40:06 227280  694 NU Vision Cyclery
3549.70Coleen Knutson   Las Vegas, NV1:47:15 212186  690 Team Procyclery
4555.46Alicia Boland   Kent, WA1:49:07 255790  685 Banning's Bikes-Ducati
5561.22Cynthia Sjogren   Riverside, CA1:49:17 271949  712 unattached
6566.98Julie Cutts   San Ramon, CA1:51:57 236645  693 Team Pro Cyclery
7572.74Michelle King   Phoenix, AZ1:55:04 238539  692 PaulTracy.com
8578.50Adrienne Brian   La Jolla, CA1:58:05 77089  686 Acqua al 2/SDBC
9584.26Angela Dybdahl (1 - Cat3)   Lancaster, CA2:01:23 255446  688 NOW-MS Society
10590.02Keely Brooks   Las Vegas, NV2:01:40 206886  687 Luv2Bike
DNSCara Gillis   Los Angeles, CA0:00:00 225855  689 OrganicAthlete's Team Vegan

Women - Cat 4

 Place Points NameCity, StateTime USAC #BibTeam
1540.00Heather Fisher   Bluediamond, NV1:51:16 279153  701 Team LVC
2543.33Amanda Rondash   Los Angeles, CA1:52:03 231938  710 NOW MS Society
3546.66Malinda Maile   Las Vegas, NV1:58:26 262047  707 Nu Vision
4549.99Trudi Schindler   Los Angeles, CA1:58:46 267658  711 NOW-MS
5Trenna Adams   2:00:34  700 
6556.65Amanda Studdard   Indio, CA2:04:13 199751  713 NA
7559.98Nicole Nastanski   Las Vegas, NV2:04:32 272278  708 Luv2bike
8LISA LOCATI   2:16:19  717 
9566.64Tracy Roberts   Las Vegas, NV2:16:19 232080  718 Unattached
10569.97Raegan Lunsford   Murrieta, CA2:17:26 274438  706 CA Pools Racing
11Julie Gill   2:17:51  702 NA
12Donna Ingle   2:23:05  703 
13Molly Kramer   2:23:31  704 NA
14583.29Sheri Thome   Henderson, NV2:25:12 255803  714 Team Pro Cyclery
15586.62Rachel Schmidt   Huntington Beach, CA2:27:53 239014  709 Velosport/Sho-Air/Sonance
16Theresia Strickland   2:40:37  716 
DNSDora Lendvai   Santa Monica, CA0:00:00 257032  705 Team VRC - NOW MS Society
DNFPaula Braxton   0:00:00  715 

Report missing or incorrect license numbers

Volkswagen
USACDFCUOREBonk BreakerSpyShimanoSierra Nevada
UCI USA Cycling is the official governing body for all disciplines of competitive cycling in the United States. The 501c3, membership-based organization aims both to achieve sustained success in international cycling competition and to grow competitive cycling in America while delivering an exceptional customer experience.
View Children's Online Privacy Protection Policy
US Olympic Committee